Regional Weather Roundup
Issued by NWS

Home | Current Version | Previous Version | Text Only | Print | Product List | Glossary Off
Versions: 1 2 3 4 5 6 7 8 9 10 11 12 13 14 15 16 17 18 19 20 21 22 23 24 25 26 27 28 29 30 31 32 33 34 35 36 37 38 39 40 41 42 43 44 45 46 47 48 49 50

000
ASUS43 KMKX 010500
RWRWI

WISCONSIN REGIONAL WEATHER ROUNDUP
NATIONAL WEATHER SERVICE MILWAUKEE/SULLIVAN WI
1200 AM CDT SUN MAY 01 2016

NOTE: "FAIR" INDICATES FEW OR NO CLOUDS BELOW 12,000 FEET WITH NO
SIGNIFICANT WEATHER AND/OR OBSTRUCTIONS TO VISIBILITY.

WIZ001-002-006>008-014>016-023>028-010600-
NORTHWEST WISCONSIN

CITY           SKY/WX    TMP DP  RH WIND       PRES   REMARKS
SUPERIOR ARPT  CLOUDY    37  30  74 NE6       30.23F WCI  33
ASHLAND        CLOUDY    36  33  89 NE8       30.22S WCI  30
HAYWARD        PTCLDY    38  31  76 NE8       30.17S WCI  32
SIREN          CLOUDY    41  30  65 NE7       30.16S
CUMBERLAND     CLOUDY    41  32  70 NE10      30.13S
RICE LAKE      CLOUDY    44  33  65 N13       30.14R
CHETEK         CLOUDY    46  34  63 NE12G20   30.11S
LADYSMITH      MOCLDY    45  31  58 NE13G18   30.14R
EAU CLAIRE     NOT AVBL
MENOMONIE      CLOUDY    49  34  56 N13G23    30.09S
NEW RICHMOND   CLOUDY    45  32  60 NE10      30.12S
OSCEOLA        CLOUDY    45  31  59 N7        30.16S
$$

WIZ003>005-009-010-017-018-010600-
NORTH CENTRAL WISCONSIN

CITY           SKY/WX    TMP DP  RH WIND       PRES   REMARKS
MANITOWISH WTR PTCLDY    38  33  81 NE9       30.14F WCI  31
ARBOR VITAE    PTCLDY    40  32  74 NE8       30.14S WCI  34
WOODRUFF       PTCLDY    40  32  74 NE8       30.14S WCI  34
RHINELANDER    CLOUDY    41  31  67 NE6       30.14R
EAGLE RIVER    CLOUDY    37  30  75 NE9       30.13F WCI  31
LAND O LAKES   CLOUDY    37  32  81 NE7       30.15F WCI  32
PHILLIPS       PTCLDY    40  31  70 NE10G18   30.13S WCI  33
TOMAHAWK       CLOUDY    42  31  65 NE6       30.13S
MEDFORD        CLOUDY    45  33  62 NE18      30.09R
MERRILL        CLOUDY    47  32  55 NE12G17   30.10S
$$

WIZ029-030-035-036-043>047-010600-
CENTRAL WISCONSIN

CITY           SKY/WX    TMP DP  RH WIND       PRES   REMARKS
WAUSAU         CLOUDY    49  30  48 NE12G23   30.07R
MOSINEE        CLOUDY    46  32  57 NE12G18   30.08S
MARSHFIELD     CLOUDY    49  34  56 NE12      30.06S
STEVENS POINT  LGT RAIN  46  32  57 NE9G16    30.07S
WAUPACA        CLOUDY    50  33  52 N9        30.05F
WAUTOMA        LGT RAIN  44  39  82 NE6       30.04F
WISC RAPIDS    LGT RAIN  48  33  56 E12       30.07S
CAMP DOUGLAS   NOT AVBL
$$

WIZ011>013-019>022-031-037>040-048>050-010600-
NORTHEAST WISCONSIN

CITY           SKY/WX    TMP DP  RH WIND       PRES   REMARKS
ANTIGO         CLOUDY    43  31  63 NE14      30.09F
SHAWANO        CLOUDY    49  32  53 NE12G20   30.08F
OCONTO         CLOUDY    46  32  59 N7        30.07R
STURGEON BAY   CLOUDY    45  32  61 NE10      30.09S
GREEN BAY      CLOUDY    46  35  65 NE26G37   30.06S
MANITOWOC      NOT AVBL
APPLETON       CLOUDY    46  32  57 E14G21    30.04R
CLINTONVILLE   CLOUDY    46  30  53 NE14G23   30.06F
OSHKOSH        CLOUDY    47  36  65 NE13      30.03S
$$

WIZ032>034-041-042-053>061-010600-
SOUTHWEST WISCONSIN

CITY           SKY/WX    TMP DP  RH WIND       PRES   REMARKS
LA CROSSE      LGT RAIN  44  40  85 N6        30.06S
SPARTA         DRIZZLE   42  40  94 N3        30.06S
VIROQUA        CLOUDY    42  40  92 NE10      30.02S
BOSCOBEL       CLOUDY    46  43  89 NE6       30.00F
PRAIRIE DU CHI CLOUDY    44  40  87 NE7       30.00S
PLATTEVILLE    CLOUDY    43  42  96 NE15      29.97S
$$

WIZ056-057-062-063-064-067-068-010600-
SOUTH CENTRAL WISCONSIN

CITY           SKY/WX    TMP DP  RH WIND       PRES   REMARKS
REEDSBURG      LGT RAIN  43  41  93 NE6       30.02F
BARABOO/DELLS  DRIZZLE   42  40  91 NE6       30.02F
LONE ROCK      NOT AVBL
MINERAL POINT  CLOUDY    43  43 100 NE14G21   29.97S
MADISON        CLOUDY    44  40  85 NE13      30.00S
MIDDLETON      CLOUDY    45  41  85 NE10      30.00S
WATERTOWN      CLOUDY    44  44 100 NE7       29.99S
MONROE         CLOUDY    43  41  93 NE16      29.95S
JANESVILLE     CLOUDY    45  45 100 NE10G16   29.95S
$$

WIZ051-052-058>065-066-070>072-010600-
SOUTHEAST WISCONSIN

CITY           SKY/WX    TMP DP  RH WIND       PRES   REMARKS
MILWAUKEE      CLOUDY    43  41  93 NE15      29.97S
WAUKESHA       CLOUDY    41  41 100 NE12      29.99S
MILWAUKEE/TIMM CLOUDY    43  39  87 NE10G18   29.99F
RACINE         CLOUDY    44  41  89 NE17      29.98S
BURLINGTON     CLOUDY    43  43  98 E10G18    29.96S FOG
KENOSHA        CLOUDY    45  42  89 NE20      29.95S FOG
FOND DU LAC    CLOUDY    45  37  73 E8        30.03F
SHEBOYGAN      CLOUDY    42  37  82 N8        30.02F
WEST BEND      CLOUDY    43  41  93 NE9       30.00F
JUNEAU         CLOUDY    43  40  91 NE10      30.02F
$$

LSZ147-162-010600-
LAKE SUPERIOR

STATION/POSITION TIME  TEMP    WIND        PRES    WAVE
                       AIR SEA DIR/SP/G            HT/PER
                 (UTC) (F)     (DEG/KT/KT) (MB)    (FT/S)
W MID LAKE BUOY  0350   39 37   40/  8/ 10 1025.0F   1/ 4
DEVILS ISLAND    0400   39      40/ 11/ 12 1024.7F
PORT WING        0400   39      40/ 10/ 12 1023.7F
SAXON HARBOR     0400   39      40/  2/  4 1022.7
$$

LMZ867-665-643>646-010600-
LAKE MICHIGAN

STATION/POSITION TIME  TEMP    WIND        PRES    WAVE
                       AIR SEA DIR/SP/G            HT/PER
                 (UTC) (F)     (DEG/KT/KT) (MB)    (FT/S)
CHAMBERS ISLAND  0400   42      10/ 16/ 20 1019.3F
N MID LAKE BUOY  0350   41 39   10/ 14/ 16 1019.1F   2/ 4
NORTHPORT PIER   0400   43      20/ 15/ 22 1019.0F
ALGOMA LAKESHORE 0315           40/ 17/ 23   N/A
KEWAUNEE LAKESHO 0400   45      30/ 20/ 28 1016.7F
SHEBOYGAN LAKESH 0400   42      10/ 11/ 12 1017.8R
PORT WASHINGTON  0400   45      40/ 12/ 14 1017.3S
S MID LAKE BUOY  0350   43 40   50/ 19/ 21 1014.1F   2/ 4
KENOSHA   LAKESH 0400   44      40/ 18/ 23 1014.2F
$$

TC  - TEMPERATURE IN CELSIUS
VSB - VISIBILITY IN STATUTE MILES
WCI - WIND CHILL INDEX
HX  - HEAT INDEX





USA.gov is the U.S. government's official web portal to all federal, state and local government web resources and services.